Weather History for Cold Bay, AK

Change the Weather History Date:

Wednesday, May 22, 2013

  Actual Average Record
Temperature  
Mean Temperature 43 °F 42 °F  
Max Temperature 45 °F 47 °F 58 °F (2003)
Min Temperature 40 °F 36 °F 18 °F (1973)
Degree Days  
Heating Degree Days 22 24  
Month to date heating degree days 607 562  
Since 1 July heating degree days 9003 8795  
Cooling Degree Days 0    
Month to date cooling degree days 0  
Year to date cooling degree days 0  
Moisture  
Dew Point 40 °F    
Average Humidity 88    
Maximum Humidity 96    
Minimum Humidity 69    
Precipitation  
Precipitation 0.00 in 0.09 in 0.61 in (2004)
Month to date precipitation 1.85 1.76  
Year to date precipitation 13.50 13.02  
Snow  
Snow 0.00 in 0.00 in 1.40 in (1970)
Month to date snowfall 0.3 1.2  
Since 1 July snowfall 64.5 73.0  
Snow Depth 0.00 in    
Sea Level Pressure  
Sea Level Pressure 29.96 in    
Wind  
Wind Speed 18 mph (SE)    
Max Wind Speed 26 mph    
Max Gust Speed 32 mph    
Visibility 8 miles    
Events Rain    
T = Trace of Precipitation, MM = Missing Value Source: NWS Daily Summary

Daily Weather History Graph

Daily Weather History Graph

Search for Another Location

Airport:

Trip Planner

Search our weather history database for the weather conditions in past years. The results will help you decide how hot, cold, wet, or windy it might be!

Date:

Astronomy

May. 22, 2013 Rise Set
Actual Time 6:29 AM AKDT 11:06 PM AKDT
Civil Twilight 5:38 AM AKDT 11:57 PM AKDT
Nautical Twilight 4:15 AM AKDT 1:22 AM AKDT
Astronomical Twilight Sun does not rise Sun does not rise
Moon 8:21 PM AKDT 5:10 AM AKDT
Length of Visible Light 18h 19m
Length of Day
16h 36m
Waxing Gibbous, 92% of the Moon is Illuminated
May 22
Waxing Gibbous
May 24
Full
May 31
Last Quarter
Jun 8
New
Jun 16
First Quarter

Hourly Weather History & Observations

Time (AKDT) Temp. Windchill Dew Point Humidity Pressure Visibility Wind Dir Wind Speed Gust Speed Precip Events Conditions
12:53 AM 41.0 °F 31.9 °F 37.9 °F 89% 29.90 in 10.0 mi SSE 19.6 mph 33.4 mph N/A   Clear
1:02 AM 41.0 °F 31.4 °F 37.4 °F 87% 29.89 in 10.0 mi SE 21.9 mph 29.9 mph N/A   Partly Cloudy
1:44 AM 41.0 °F 31.9 °F 39.2 °F 93% 29.89 in 6.0 mi SE 19.6 mph 28.8 mph N/A   Mostly Cloudy
1:53 AM 41.0 °F 31.1 °F 39.0 °F 93% 29.90 in 8.0 mi SSE 23.0 mph 29.9 mph N/A   Mostly Cloudy
2:10 AM 41.0 °F 31.6 °F 39.2 °F 93% 29.89 in 10.0 mi SSE 20.7 mph 29.9 mph N/A   Mostly Cloudy
2:44 AM 41.0 °F 31.9 °F 39.2 °F 93% 29.89 in 10.0 mi SE 19.6 mph - N/A   Mostly Cloudy
2:53 AM 41.0 °F 31.6 °F 39.0 °F 93% 29.90 in 10.0 mi SE 20.7 mph 27.6 mph N/A   Mostly Cloudy
3:16 AM 41.0 °F 32.2 °F 37.4 °F 87% 29.89 in 10.0 mi SE 18.4 mph - N/A   Scattered Clouds
3:43 AM 41.0 °F 31.1 °F 39.2 °F 93% 29.89 in 5.0 mi SSE 23.0 mph 27.6 mph N/A   Mostly Cloudy
3:53 AM 41.0 °F 31.9 °F 39.0 °F 93% 29.90 in 4.0 mi SE 19.6 mph 31.1 mph N/A   Overcast
4:53 AM 41.0 °F 32.8 °F 39.0 °F 93% 29.91 in 3.0 mi SE 16.1 mph 29.9 mph N/A   Overcast
5:53 AM 41.0 °F 31.9 °F 39.0 °F 93% 29.91 in 4.0 mi SE 19.6 mph 25.3 mph N/A   Overcast
6:53 AM 41.0 °F 33.5 °F 39.0 °F 93% 29.92 in 5.0 mi ESE 13.8 mph 26.5 mph N/A   Overcast
7:02 AM 41.0 °F 32.2 °F 39.2 °F 93% 29.91 in 6.0 mi ESE 18.4 mph 25.3 mph N/A   Overcast
7:10 AM 41.0 °F 32.8 °F 39.2 °F 93% 29.92 in 5.0 mi ESE 16.1 mph 25.3 mph N/A   Overcast
7:53 AM 41.0 °F 32.8 °F 39.0 °F 93% 29.93 in 7.0 mi SE 16.1 mph 25.3 mph N/A   Overcast
8:00 AM 41.0 °F 32.2 °F 39.2 °F 93% 29.92 in 7.0 mi SE 18.4 mph - N/A   Overcast
8:53 AM 43.0 °F 35.7 °F 39.9 °F 89% 29.93 in 10.0 mi SE 15.0 mph 21.9 mph N/A   Overcast
9:53 AM 43.0 °F 35.1 °F 41.0 °F 93% 29.94 in 9.0 mi SE 17.3 mph 28.8 mph N/A   Overcast
10:00 AM 44.6 °F 37.2 °F 41.0 °F 87% 29.93 in 10.0 mi SE 17.3 mph 28.8 mph N/A   Mostly Cloudy
10:45 AM 42.8 °F 34.0 °F 39.2 °F 87% 29.95 in 10.0 mi SE 20.7 mph 28.8 mph N/A   Mostly Cloudy
10:53 AM 43.0 °F 34.0 °F 39.9 °F 89% 29.96 in 10.0 mi SE 21.9 mph 27.6 mph N/A   Overcast
11:38 AM 44.6 °F 36.1 °F 41.0 °F 87% 29.96 in 6.0 mi SE 21.9 mph 29.9 mph N/A   Overcast
11:53 AM 44.1 °F 34.8 °F 41.0 °F 89% 29.96 in 4.0 mi SE 25.3 mph 31.1 mph N/A   Overcast
12:49 PM 46.4 °F 38.1 °F 42.8 °F 87% 29.96 in 10.0 mi SSE 24.2 mph 31.1 mph N/A   Mostly Cloudy
12:53 PM 46.9 °F - 42.1 °F 83% 29.96 in 10.0 mi SE 25.3 mph 31.1 mph N/A   Mostly Cloudy
1:53 PM 51.1 °F - 42.1 °F 71% 29.97 in 10.0 mi SSE 23.0 mph 28.8 mph N/A   Mostly Cloudy
2:53 PM 50.0 °F - 41.0 °F 71% 29.98 in 10.0 mi SE 21.9 mph 27.6 mph N/A   Overcast
3:53 PM 48.0 °F - 41.0 °F 77% 29.99 in 10.0 mi SE 18.4 mph 27.6 mph N/A   Mostly Cloudy
4:53 PM 46.9 °F - 39.9 °F 77% 30.01 in 10.0 mi SE 18.4 mph 27.6 mph N/A   Overcast
5:53 PM 45.0 °F 38.5 °F 39.0 °F 80% 30.02 in 10.0 mi ESE 13.8 mph - N/A   Overcast
6:53 PM 43.0 °F 35.4 °F 39.0 °F 86% 30.04 in 10.0 mi SE 16.1 mph 20.7 mph N/A   Overcast
7:11 PM 42.8 °F 35.1 °F 39.2 °F 87% 30.03 in 10.0 mi SE 16.1 mph 19.6 mph N/A   Overcast
7:53 PM 43.0 °F 37.2 °F 39.0 °F 86% 30.04 in 10.0 mi SE 10.4 mph - N/A   Overcast
8:53 PM 42.1 °F 37.7 °F 39.0 °F 89% 30.05 in 10.0 mi SE 6.9 mph - N/A   Overcast
9:53 PM 42.1 °F 37.1 °F 39.9 °F 92% 30.06 in 5.0 mi SE 8.1 mph - 0.01 in Rain Light Rain
10:20 PM 42.8 °F 38.6 °F 39.2 °F 87% 30.06 in 5.0 mi SSE 6.9 mph - 0.01 in Rain Light Rain
10:53 PM 41.0 °F 36.4 °F 39.9 °F 96% 30.08 in 3.0 mi SSE 6.9 mph - 0.02 in Rain Light Rain
11:43 PM 41.0 °F 37.1 °F 39.2 °F 93% 30.08 in 9.0 mi SSE 5.8 mph - 0.00 in   Overcast
11:53 PM 41.0 °F 37.1 °F 39.0 °F 93% 30.09 in 10.0 mi SSE 5.8 mph - 0.00 in   Overcast